Location: Cahas Mountain Overlook
(37.0833°N, 80.1000°W)
Time: 07:16:21
(UTC-04:00)

Tiros 1 despin weight - Visible Passes

Search period start: 25 June 2022 00:00
Search period end: 05 July 2022 00:00
Orbit: 591 x 639 km, 48.2° (Epoch: 25 June)

Date Brightness Start Highest point End Pass type
(mag) Time Alt. Az. Time Alt. Az. Time Alt. Az.
27 Jun ? 04:45:54 10° SE 04:46:52 11° SE 04:47:49 10° ESE visible
28 Jun ? 04:58:35 10° S 05:02:08 22° SE 05:05:44 10° E visible
29 Jun ? 05:13:11 10° SSW 05:17:32 44° SE 05:21:57 10° ENE visible
30 Jun ? 03:51:09 13° SE 03:52:08 14° SE 03:54:32 10° E visible
30 Jun ? 05:28:29 10° SW 05:33:04 85° SE 05:37:44 10° ENE visible
01 Jul ? 04:06:05 24° SSE 04:07:26 28° SE 04:11:24 10° ENE visible
02 Jul ? 04:20:57 31° SSW 04:22:53 57° SE 04:27:24 10° ENE visible
03 Jul ? 02:58:46 16° ESE 02:58:46 16° ESE 03:00:32 10° E visible
03 Jul ? 04:35:45 24° WSW 04:38:27 78° NW 04:43:06 10° NE visible
04 Jul ? 03:13:31 34° ESE 03:13:31 34° ESE 03:16:57 10° ENE visible
04 Jul ? 04:50:29 14° W 04:54:11 45° NNW 04:58:39 10° NE visible
